TimeEST,TemperatureF,Dew PointF,Humidity,Sea Level PressureIn,VisibilityMPH,Wind Direction,Wind SpeedMPH,Gust SpeedMPH,PrecipitationIn,Events,Conditions,WindDirDegrees,DateUTC
12:53 AM,30.0,12.0,47,30.28,10.0,Calm,Calm,-,N/A,,Clear,0,2013-02-18 05:53:00
1:53 AM,30.9,12.9,47,30.30,10.0,Calm,Calm,-,N/A,,Clear,0,2013-02-18 06:53:00
2:53 AM,28.9,15.1,56,30.30,10.0,Calm,Calm,-,N/A,,Clear,0,2013-02-18 07:53:00
3:53 AM,28.9,15.1,56,30.31,10.0,Calm,Calm,-,N/A,,Clear,0,2013-02-18 08:53:00
4:53 AM,28.9,15.1,56,30.32,10.0,Calm,Calm,-,N/A,,Clear,0,2013-02-18 09:53:00
5:53 AM,28.0,16.0,61,30.34,10.0,Calm,Calm,-,N/A,,Clear,0,2013-02-18 10:53:00
7:53 AM,28.0,19.9,72,30.36,10.0,Calm,Calm,-,N/A,,Clear,0,2013-02-18 12:53:00
8:53 AM,35.1,18.0,50,30.38,10.0,Calm,Calm,-,N/A,,Clear,0,2013-02-18 13:53:00
9:53 AM,41.0,16.0,36,30.38,10.0,Calm,Calm,-,N/A,,Clear,0,2013-02-18 14:53:00
10:53 AM,45.0,16.0,31,30.38,10.0,Variable,3.5,-,N/A,,Clear,0,2013-02-18 15:53:00
11:53 AM,50.0,16.0,26,30.36,10.0,SW,9.2,-,N/A,,Clear,230,2013-02-18 16:53:00
12:53 PM,52.0,16.0,24,30.33,10.0,South,12.7,16.1,N/A,,Clear,190,2013-02-18 17:53:00
1:53 PM,53.1,17.1,24,30.30,10.0,South,6.9,-,N/A,,Clear,190,2013-02-18 18:53:00
2:53 PM,55.0,18.0,23,30.28,10.0,SSW,8.1,21.9,N/A,,Clear,200,2013-02-18 19:53:00
3:53 PM,55.9,19.0,24,30.26,10.0,South,9.2,18.4,N/A,,Clear,190,2013-02-18 20:53:00
4:53 PM,55.0,19.9,25,30.26,10.0,South,11.5,-,N/A,,Clear,180,2013-02-18 21:53:00
5:53 PM,53.1,19.9,27,30.25,10.0,South,6.9,-,N/A,,Clear,190,2013-02-18 22:53:00
6:53 PM,50.0,21.9,33,30.26,10.0,SSE,6.9,-,N/A,,Clear,150,2013-02-18 23:53:00
7:53 PM,46.0,21.9,39,30.25,10.0,SSE,5.8,-,N/A,,Clear,150,2013-02-19 00:53:00
8:53 PM,46.0,21.9,39,30.25,10.0,SSE,4.6,-,N/A,,Clear,160,2013-02-19 01:53:00
9:53 PM,45.0,21.9,40,30.24,10.0,South,6.9,-,N/A,,Partly Cloudy,180,2013-02-19 02:53:00
10:53 PM,44.1,23.0,43,30.22,10.0,South,6.9,-,N/A,,Partly Cloudy,180,2013-02-19 03:53:00
11:53 PM,41.0,23.0,49,30.22,10.0,South,5.8,-,N/A,,Clear,170,2013-02-19 04:53:00